Location: Belfast
(54.5830°N, 5.9330°W)
Time: 23:08:50
(UTC+01:00)

ISS - Pass Details

Date: 17 May 2018
Orbit: 402 x 407 km, 51.6° (Epoch: 24 May)

Event Time Altitude Azimuth Distance (km) Brightness Sun altitude
Exits shadow 01:39:07 27° 129° (SE) 821 -2.6 -16.0°
Drops below altitude 10° 01:41:13 10° 96° (E) 1,459 -1.0 -16.0°
Sets 01:43:26 0° 85° (E) 2,320 0.2 -16.0°
